Location: Winthrop
(48.4780°N, 120.1850°W)
Time: 04:15:19
(UTC-08:00)

Vanguard 1 Rocket - Pass Details

Date: 02 December 2023
Orbit: 654 x 4218 km, 34.3° (Epoch: 24 February)

Event Time Altitude Azimuth Distance (km) Brightness Sun altitude
Rises 02:15:12 0° 184° (S) 8,412 12.1 -50.8°
Reaches altitude 10° 02:26:25 10° 164° (SSE) 6,997 11.8 -49.2°
Maximum altitude 02:35:03 14° 141° (SE) 6,124 11.6 -47.9°
Drops below altitude 10° 02:42:18 10° 118° (ESE) 5,795 11.8 -46.8°
Sets 02:49:21 0° 95° (E) 6,045 12.2 -45.7°
